Tracking 20945 objects as of 9-Jul-2020
HD Live streaming from Space Station
objects crossing your sky now

PSLV DEB

Track PSLV DEB now!
10-day predictions


NORAD ID: 34221
Int'l Code: 2001-049PR
Perigee: 526.0 km
Apogee: 613.6 km
Inclination: 98.5 °
Period: 95.9 minutes
Semi major axis: 6940 km
RCS: 0.0004 m2 (small)
Launch date: October 22, 2001
Source: India (IND)
Launch site: SRIHARIKOTA (SRI)

Note: This is SATELLITE DEBRIS
aabbcc
Your satellite tracking list
Your tracking list is empty




NASA's NSSDC Master Catalog

Two Line Element Set (TLE):
1 34221U 01049PR  20190.39296854 -.00000290  00000-0 -15742-4 0  9990
2 34221  98.5353 239.3346 0063159 143.4937 217.0616 15.01373525989250
Source of the keplerian elements: AFSPC